Location: Grieser Field
(39.7333°N, 81.7975°W)
Time: 08:53:51
(UTC-04:00)

Daily predictions for brighter satellites

Satellite Brightness Start Highest point End
(mag) Time Altitude Azimuth Time Altitude Azimuth Time Altitude Azimuth
Resurs 1-3 4.0 21:09:31 10° S 21:13:52 66° W 21:18:14 10° NNW
Cosmos 405 Rocket 2.8 21:11:33 10° S 21:15:12 53° E 21:18:57 10° NNE
Cosmos 1500 4.0 21:13:37 10° NNW 21:17:18 53° W 21:20:57 10° S
DEBRIS 3.2 21:14:31 10° SW 21:17:26 75° SE 21:26:00 10° ENE
Meteor 1-19 Rocket 4.4 21:13:59 10° S 21:19:41 62° E 21:25:21 10° NNE
Cosmos 923 Rocket 4.1 21:16:05 10° SSW 21:21:24 85° ESE 21:26:44 10° NNE
Tiangong 2 1.1 21:20:12 10° WSW 21:23:24 89° ESE 21:26:34 10° ENE
Cosmos 1441 Rocket 3.9 21:20:42 10° SSE 21:24:05 34° E 21:27:29 10° NNE
ERS-1 Rocket 3.9 21:21:56 10° SE 21:26:20 32° ENE 21:30:46 10° N
Resurs 01 Rocket 3.0 21:23:27 10° SSW 21:27:37 40° W 21:31:49 10° NNW
CENTAUR R/B 3.3 21:20:25 10° NW 21:28:25 83° WSW 21:36:53 10° SSE
Cosmos 1455 Rocket 3.8 21:24:12 10° NNW 21:28:28 55° W 21:32:41 10° S
SPOT 5 4.4 21:30:32 10° ESE 21:33:19 17° ENE 21:36:07 10° NNE
Meteor 1-29 2.8 21:31:48 10° NNE 21:35:10 66° ESE 21:38:30 10° S
Nadezhda 1 Rocket 4.2 21:30:14 10° SSE 21:36:24 57° E 21:42:40 10° NNE
COSMOS 2406 3.6 21:36:01 10° SSW 21:41:44 72° WNW 21:47:27 10° NNE
Cosmos 2082 Rocket 3.6 21:41:51 13° SE 21:44:40 18° E 21:48:17 10° ENE
Cosmos 1743 3.4 21:46:05 10° NNW 21:49:53 54° W 21:53:42 10° S
CZ-4B DEB 3.0 21:48:45 10° S 21:51:42 62° W 21:54:41 10° NNW
Cosmos 2154 Rocket 4.3 21:46:09 10° N 21:52:20 52° E 21:57:43 14° SSE
CRYOSAT 2 4.4 21:48:52 10° SSE 21:53:36 61° E 21:58:22 10° N
Cosmos 2112 Rocket 4.2 21:48:46 10° SSW 21:53:58 75° WNW 21:59:11 10° NNE
Cosmos 1238 Rocket 4.1 21:49:02 10° S 21:55:45 78° E 22:02:15 10° N
Aureole 3 Rocket 3.9 21:51:25 10° SSW 21:57:48 69° W 22:02:20 10° N
ISS -2.5 21:55:00 10° WSW 21:58:11 44° NNW 22:01:22 10° NE
ASTEX 1 3.3 21:55:10 10° SSE 22:00:03 78° E 22:04:58 10° N
OAO 2 Rocket 3.6 21:57:03 10° WSW 22:01:48 48° S 22:05:08 19° ESE
Cosmos 1624 Rocket 4.4 21:56:50 10° N 22:02:00 52° ENE 22:05:36 19° SE
H-2A R/B 3.3 21:59:49 15° ESE 22:02:36 24° ENE 22:06:37 10° NNE
Helios 1A 4.2 22:00:12 10° S 22:04:09 39° W 22:08:07 10° NNW
Cosmos 1697 Rocket 4.4 22:01:39 10° N 22:05:42 20° NE 22:09:12 12° E
SL-27 R/B 3.7 22:03:14 10° SW 22:06:46 46° WNW 22:10:18 10° N
Cosmos 967 Rocket 4.5 22:01:07 10° SSW 22:07:15 61° ESE 22:13:25 10° NE
Cosmos 2228 4.4 22:04:23 10° NNE 22:07:53 24° ENE 22:09:27 19° ESE
Cosmos 1939 Rocket 4.0 22:05:02 10° SSW 22:08:39 39° W 22:12:18 10° NNW
YAOGAN 6 2.9 22:06:34 14° S 22:09:28 62° W 22:12:57 10° NNW
Cosmos 921 Rocket 3.9 22:06:18 10° N 22:10:26 35° ENE 22:12:34 22° ESE
Cosmos 1666 3.8 22:08:56 10° NNW 22:12:29 41° W 22:16:01 10° SSW
Meteor 2-9 Rocket 4.4 22:08:23 10° NNW 22:13:52 73° W 22:19:13 11° S
SL-08 RB Rocket 4.4 22:12:25 23° ESE 22:14:39 38° ENE 22:18:47 10° N
Okean 1-7 Rocket 4.0 22:12:39 10° SSW 22:17:04 66° W 22:21:34 10° N
Cosmos 1892 Rocket 3.8 22:15:22 21° SSE 22:18:03 51° E 22:22:20 10° NNE
Intercosmos 24 3.6 22:17:04 10° N 22:20:51 82° W 22:22:54 24° S
Cosmos 2056 Rocket 3.4 22:16:10 10° NNW 22:21:20 71° ENE 22:24:17 25° SSE
Cosmos 1833 Rocket 3.3 22:19:02 22° SSE 22:21:44 34° ESE 22:26:45 10° NE
NOSS 8 (E) 4.5 22:19:50 10° SSW 22:23:14 57° ESE 22:26:49 10° NE
Cosmos 1437 Rocket 2.6 22:19:29 10° N 22:23:20 83° E 22:25:16 28° SSE
CZ-3B Rocket 4.4 22:19:45 10° S 22:39:10 - ESE 22:21:32 14° S
Cosmos 2341 Rocket 4.1 22:18:51 10° N 22:25:13 68° E 22:29:28 22° SSE
MetOp-A 4.1 22:23:25 20° SSE 22:27:10 90° WNW 22:32:33 10° NNW
Cosmos 1606 Rocket 3.4 22:26:41 10° N 22:31:01 88° ENE 22:33:15 28° S
PSLV R/B 3.3 22:29:43 10° W 22:32:45 50° SSW 22:32:59 48° S
Cosmos 839 Rocket 4.4 22:28:23 10° NNW 22:35:00 74° ENE 22:39:48 26° SE
Cosmos 1726 Rocket 3.4 22:36:25 10° N 22:40:45 87° W 22:42:37 34° S
Cosmos 1025 Rocket 4.4 22:37:24 10° SSW 22:41:23 38° WNW 22:45:22 10° N
USA 245 2.4 22:42:20 69° NNW 22:42:20 69° NNW 22:44:27 10° NNW
Cosmos 1515 3.8 22:40:58 26° SSW 22:42:58 73° W 22:46:47 10° N
COSMOS 2487 2.3 22:43:44 41° SSW 22:44:53 85° ESE 22:48:28 10° NNE
CZ-3A R/B 1.3 22:45:33 10° WSW 22:48:49 39° NW 22:48:50 39° NW
CARTOSAT-1 4.5 22:50:14 31° E 22:51:00 33° ENE 22:54:54 10° N
Cosmos 1452 Rocket 3.7 22:48:07 10° N 22:53:19 56° ENE 22:55:04 38° SE
Landsat 7 4.0 22:52:27 40° SE 22:53:50 55° ENE 22:58:29 10° N
SPOT 1/Viking Rocket 3.5 22:51:40 36° SSE 22:53:52 85° ENE 22:59:03 10° NNW
Cosmos 1980 Rocket 3.5 22:49:20 10° N 22:54:10 28° ENE 22:56:23 22° E
Cosmos 2181 Rocket 4.1 22:49:26 17° S 22:54:33 82° W 23:00:53 10° N
Cosmos 2058 Rocket 3.0 22:50:55 10° N 22:55:22 83° W 22:56:50 42° S
Cosmos 1766 4.5 22:56:23 10° NNE 22:59:35 27° ENE 22:59:35 27° ENE
Tiangong 2 2.1 22:57:13 10° WNW 23:00:17 45° N 23:00:58 38° NE
ARGOS 3.5 22:58:32 27° S 23:01:24 59° WSW 23:06:47 10° NNW
Cosmos 2322 Rocket 4.4 23:01:20 10° NNE 23:04:08 14° NE 23:06:55 10° ENE
Lacrosse 5 rocket 4.4 23:02:40 10° N 23:04:21 12° NNE 23:06:03 10° NE
USA 267 4.3 23:01:52 10° ENE 23:05:41 24° ESE 23:05:41 24° ESE
Terra 2.1 23:07:56 46° ESE 23:08:52 54° ENE 23:13:31 10° N
SPOT 5 3.5 23:09:28 29° SW 23:11:04 41° W 23:15:11 10° NNW
H-2A R/B 2.2 23:15:12 55° ESE 23:15:46 61° ENE 23:20:16 10° N
Cosmos 1812 Rocket 3.9 23:14:00 10° N 23:18:22 50° E 23:18:32 50° E
IGS 5A 3.5 23:18:14 62° E 23:18:24 63° ENE 23:22:31 10° N
Cosmos 864 Rocket 4.4 23:12:16 10° N 23:18:36 77° E 23:20:40 44° SSE
Cosmos 468 4.4 23:17:25 45° S 23:19:03 81° ESE 23:24:22 10° NNE
Meteor 2-21 4.3 23:16:50 10° N 23:22:55 88° E 23:24:52 46° S
Cosmos 1626 Rocket 3.5 23:26:20 67° SW 23:26:49 78° W 23:31:09 10° N
Meteor 2-21 Rocket 4.3 23:20:54 10° N 23:26:59 77° E 23:28:38 50° SSE
Spot 4 4.4 23:26:55 42° E 23:27:21 44° ENE 23:31:55 10° N
Cosmos 2082 Rocket 2.6 23:23:35 16° SW 23:28:10 61° WNW 23:33:47 10° NNE
Cosmos 2278 4.4 23:24:05 10° NW 23:29:29 45° WSW 23:31:16 34° SSW
Cosmos 1805 4.5 23:28:02 10° N 23:30:53 32° NE 23:30:53 32° NE
SL-19 R/B 4.0 23:26:48 10° NNE 23:32:10 82° ESE 23:33:15 57° S
Meteor 1-22 Rocket 4.0 23:28:13 10° N 23:33:34 85° W 23:34:40 58° S
ISS -0.4 23:33:38 10° NW 23:35:20 13° NNW 23:37:02 10° NNE
SL-8 Rocket 4.5 23:29:41 10° NNW 23:35:45 54° W 23:38:28 32° SSW
USA 229 DEB 4.1 23:29:14 10° NNW 23:36:19 60° NE 23:39:05 38° ESE
USA 229 4.1 23:29:21 10° NNW 23:36:25 59° NE 23:39:12 38° ESE
Cosmos 1825 Rocket 4.4 23:41:26 37° ENE 23:41:26 37° ENE 23:44:38 10° NNE
Cosmos 2366 rocket 4.1 23:35:30 10° NNW 23:41:35 66° W 23:43:33 43° SSW
H-2A R/B 3.0 23:40:27 31° SW 23:41:49 36° W 23:46:27 10° NNW
Cosmos 158 Rocket 3.9 23:46:05 64° SSW 23:46:57 88° WNW 23:52:21 10° NNE
Meteor 1-4 Rocket 4.1 23:46:02 10° NNW 23:48:46 29° WNW 23:48:46 29° WNW
Cosmos 1697 Rocket 2.8 23:44:35 10° NNW 23:50:08 62° WSW 23:50:57 55° SSW
CZ-4C R/B 4.4 23:52:05 36° NNE 23:52:05 36° NNE 23:54:28 10° N
Cosmos 2360 4.2 23:45:18 10° NNW 23:51:01 66° ENE 23:51:48 58° ESE
